This demonstration page uses our WeatherBlox Daily Observations layout. Learn more.

Left ArrowRight Arrow

39.51506, -84.39828

Hourly Observations for May 10, 2019

Temp ( °F °C ) Dew Point ( °F °C ) Humidity (%) Winds ( mph kmh ) Pressure ( in mb ) Visibility ( mi km ) Precip ( " mm )
12:15 am 00:15 Cloudy 66 18.7 64 17.6 93 93 SSW 6 9 29.89 1012 10 16 N/A
12:35 am 00:35 Cloudy 65 18.6 64 17.6 94 94 SSW 6 9 29.90 1012 10 16 N/A
12:55 am 00:55 Cloudy 65 18.5 64 17.5 94 94 SW 6 9 29.90 1012 10 16 N/A
1:15 am 01:15 Cloudy 65 18.4 64 17.5 95 95 SW 7 11 29.90 1012 10 16 N/A
1:35 am 01:35 Cloudy 65 18.5 64 17.5 94 94 WSW 8 13 29.90 1012 10 16 N/A
1:55 am 01:55 Cloudy 65 18.5 64 17.5 94 94 W 7 11 29.90 1012 10 16 N/A
2:15 am 02:15 Cloudy 66 18.7 63 17.4 92 92 WSW 9 15 29.90 1012 10 16 N/A
2:35 am 02:35 Cloudy 65 18.6 63 17.1 91 91 W 8 13 29.91 1013 10 16 N/A
2:55 am 02:55 Cloudy 65 18.3 62 16.6 90 90 NW 8 13 29.91 1013 10 16 N/A
3:15 am 03:15 Cloudy 64 17.7 60 15.4 86 86 WNW 10 17 29.92 1013 10 16 N/A
3:35 am 03:35 Cloudy 63 17.4 59 15.2 87 87 WNW 10 17 29.93 1014 10 16 N/A
3:55 am 03:55 Cloudy with Heavy Rain 62 16.5 59 14.9 90 90 WNW 7 11 29.93 1014 10 16 N/A
4:15 am 04:15 Cloudy 61 16.2 59 15.1 93 93 WNW 6 9 29.94 1014 10 16 N/A
4:35 am 04:35 Cloudy 61 16 59 15 94 94 NW 6 9 29.94 1014 10 16 N/A
4:55 am 04:55 Cloudy with Rain 61 15.9 59 14.8 93 93 NW 8 13 29.95 1014 7 11 N/A
5:15 am 05:15 Cloudy 60 15.7 58 14.6 93 93 NW 5 7 29.95 1014 10 16 N/A
5:35 am 05:35 Cloudy 59 15.1 57 13.7 91 91 WNW 9 15 29.97 1015 10 16 N/A
5:55 am 05:55 Cloudy 58 14.7 56 13.4 92 92 WNW 8 13 29.97 1015 10 16 N/A
6:15 am 06:15 Cloudy 58 14.7 56 13.4 92 92 WNW 6 9 29.98 1015 10 16 N/A
6:35 am 06:35 Cloudy 58 14.7 56 13.5 93 93 W 5 7 29.99 1015 10 16 N/A
6:55 am 06:55 Cloudy 57 14 55 12.9 93 93 NNW 8 13 29.99 1016 7 11 N/A
7:15 am 07:15 Cloudy 56 13.6 55 12.6 94 94 WNW 6 9 30.01 1016 7 11 N/A
7:35 am 07:35 Cloudy 56 13.4 54 12.3 93 93 W 5 7 30.01 1016 10 16 N/A
7:55 am 07:55 Cloudy 56 13.3 54 12 92 92 WNW 8 13 30.02 1017 10 16 N/A
8:15 am 08:15 Cloudy 56 13.2 53 11.9 92 92 WNW 12 19 30.03 1017 10 16 N/A
8:35 am 08:35 Cloudy 55 12.9 53 11.5 91 91 WNW 9 15 30.04 1017 10 16 N/A
8:55 am 08:55 Cloudy 55 12.7 52 11.2 91 91 NW 7 11 30.04 1017 10 16 N/A
9:15 am 09:15 Cloudy 54 12.4 51 10.8 90 90 WNW 8 13 30.05 1018 10 16 N/A
9:35 am 09:35 Cloudy 55 12.7 51 10.6 87 87 WNW 8 13 30.06 1018 10 16 N/A
9:55 am 09:55 Cloudy 55 12.7 50 10.2 85 85 W 10 17 30.08 1019 10 16 N/A
10:15 am 10:15 Cloudy 55 12.7 50 9.9 83 83 NW 13 20 30.08 1019 10 16 N/A
10:35 am 10:35 Cloudy 55 12.5 50 9.8 84 84 WNW 12 19 30.09 1019 10 16 N/A
10:55 am 10:55 Cloudy 54 12.4 49 9.5 83 83 W 8 13 30.10 1019 10 16 N/A
11:15 am 11:15 Cloudy 55 12.7 49 9.3 80 80 WNW 7 11 30.09 1019 10 16 N/A
11:35 am 11:35 Cloudy 54 12.4 48 9.1 80 80 NNW 8 13 30.11 1020 10 16 N/A
11:55 am 11:55 Cloudy 55 12.5 48 8.8 78 78 NW 7 11 30.10 1019 10 16 N/A
12:15 pm 12:15 Cloudy 55 13 48 9 77 77 NW 8 13 30.10 1019 10 16 N/A
12:35 pm 12:35 Cloudy 55 13 48 8.8 76 76 NNW 8 13 30.10 1019 10 16 N/A
12:55 pm 12:55 Cloudy 56 13.1 47 8.5 74 74 NNW 9 15 30.10 1019 10 16 N/A
1:15 pm 13:15 Cloudy 56 13.1 48 8.7 75 75 NW 9 15 30.11 1020 10 16 N/A
1:35 pm 13:35 Cloudy 56 13.3 48 8.7 74 74 NW 8 13 30.12 1020 10 16 N/A
1:55 pm 13:55 Cloudy 56 13.4 48 9 75 75 NW 10 17 30.11 1020 10 16 N/A
2:15 pm 14:15 Cloudy 56 13.2 47 8.3 72 72 NNW 13 20 30.11 1020 10 16 N/A
2:35 pm 14:35 Cloudy 58 14.2 48 8.8 70 70 NW 10 17 30.12 1020 10 16 N/A
2:55 pm 14:55 Cloudy 57 13.7 47 8.4 71 71 NNW 9 15 30.13 1020 10 16 N/A
3:15 pm 15:15 Cloudy 58 14.2 46 8 67 67 W 10 17 30.13 1020 10 16 N/A
3:35 pm 15:35 Mostly Cloudy 59 14.8 46 8 64 64 WSW 9 15 30.13 1020 10 16 N/A
3:55 pm 15:55 Mostly Cloudy 59 14.9 47 8.3 65 65 NNW 9 15 30.12 1020 10 16 N/A
4:15 pm 16:15 Partly Cloudy 59 15 46 7.8 62 62 WNW 9 15 30.12 1020 10 16 N/A
4:35 pm 16:35 Partly Cloudy 59 15 47 8.3 64 64 NNW 8 13 30.12 1020 10 16 N/A
4:55 pm 16:55 Partly Cloudy 59 14.8 46 7.6 62 62 NNW 8 13 30.12 1020 10 16 N/A
5:15 pm 17:15 Mostly Cloudy 58 14.7 46 7.5 62 62 NW 6 9 30.12 1020 10 16 N/A
5:35 pm 17:35 Partly Cloudy 58 14.6 46 7.8 64 64 NW 7 11 30.13 1020 10 16 N/A
5:55 pm 17:55 Mostly Cloudy 57 14.1 46 7.5 65 65 NNW 9 15 30.13 1020 10 16 N/A
6:15 pm 18:15 Sunny 58 14.2 46 7.5 64 64 NNW 9 15 30.13 1020 10 16 N/A
6:35 pm 18:35 Sunny 57 13.7 45 7.4 66 66 NNW 9 15 30.14 1021 10 16 N/A
6:55 pm 18:55 Partly Cloudy 55 13 46 7.8 71 71 N 8 13 30.14 1021 10 16 N/A
7:15 pm 19:15 Cloudy 55 12.8 46 7.8 72 72 N 9 15 30.14 1021 10 16 N/A
7:35 pm 19:35 Partly Cloudy 54 12.3 46 7.5 73 73 NNW 6 9 30.14 1021 10 16 N/A
7:55 pm 19:55 Sunny 54 12 45 7.2 73 73 NNW 7 11 30.15 1021 10 16 N/A
8:15 pm 20:15 Sunny 53 11.9 45 7.3 74 74 N 8 13 30.14 1021 10 16 N/A
8:35 pm 20:35 Sunny 53 11.4 45 7.1 75 75 N 7 11 30.15 1021 10 16 N/A
8:55 pm 20:55 Clear 52 11 45 7.1 77 77 N 5 7 30.16 1021 10 16 N/A
9:15 pm 21:15 Clear 51 10.5 45 7.1 80 80 N 6 9 30.16 1021 10 16 N/A
9:35 pm 21:35 Clear 50 10.2 45 7.2 82 82 N 3 6 30.16 1021 10 16 N/A
9:55 pm 21:55 Clear 50 10 45 7.2 83 83 N N/A 30.17 1022 10 16 N/A
10:15 pm 22:15 Clear 50 9.8 45 7.4 85 85 NNE 3 6 30.17 1022 10 16 N/A
10:35 pm 22:35 Clear 49 9.5 45 7.4 87 87 N 3 6 30.17 1022 10 16 N/A
10:55 pm 22:55 Clear 49 9.2 45 7.3 88 88 N 3 6 30.17 1022 10 16 N/A
11:15 pm 23:15 Clear 48 9 45 7.1 88 88 N 5 7 30.16 1021 10 16 N/A
11:35 pm 23:35 Partly Cloudy 48 9.1 44 6.8 86 86 N N/A 30.17 1022 10 16 N/A
11:55 pm 23:55 Cloudy 49 9.3 44 6.8 85 85 N N/A 30.18 1022 10 16 N/A

Powered by AerisWeather